Time,TemperatureF,DewpointF,PressureIn,WindDirection,WindDirectionDegrees,WindSpeedMPH,WindSpeedGustMPH,Humidity,HourlyPrecipIn,Conditions,Clouds,dailyrainin,SoftwareType,DateUTC
2013-01-09 00:02:00,36.0,30.0,-100.00,SE,145,7.0,12.0,79,-99.99,,,-99.99,,2013-01-09 06:02:00,
2013-01-09 00:12:00,35.0,30.0,-100.00,SSE,150,9.0,14.0,80,-99.99,,,-99.99,,2013-01-09 06:12:00,
2013-01-09 00:22:00,35.0,30.0,-100.00,SSE,150,9.0,14.0,80,-99.99,,,-99.99,,2013-01-09 06:22:00,
2013-01-09 00:32:00,35.0,30.0,-100.00,SE,145,8.0,16.0,81,-99.99,,,-99.99,,2013-01-09 06:32:00,
2013-01-09 00:42:00,35.0,30.0,-100.00,SE,145,8.0,16.0,81,-99.99,,,-99.99,,2013-01-09 06:42:00,
2013-01-09 00:52:00,36.0,31.0,-100.00,SSE,155,10.0,16.0,79,-99.99,,,-99.99,,2013-01-09 06:52:00,
2013-01-09 01:02:00,36.0,31.0,-100.00,SSE,155,10.0,16.0,79,-99.99,,,-99.99,,2013-01-09 07:02:00,
2013-01-09 01:12:00,39.0,32.0,-100.00,SSE,160,13.0,19.0,75,-99.99,,,-99.99,,2013-01-09 07:12:00,
2013-01-09 01:22:00,39.0,32.0,-100.00,SSE,160,13.0,19.0,75,-99.99,,,-99.99,,2013-01-09 07:22:00,
2013-01-09 01:32:00,41.0,33.0,-100.00,SSE,165,16.0,26.0,72,-99.99,,,-99.99,,2013-01-09 07:32:00,
2013-01-09 01:42:00,41.0,33.0,-100.00,SSE,165,16.0,26.0,72,-99.99,,,-99.99,,2013-01-09 07:42:00,
2013-01-09 01:52:00,41.0,33.0,-100.00,South,175,17.0,26.0,70,-99.99,,,-99.99,,2013-01-09 07:52:00,
2013-01-09 02:02:00,41.0,33.0,-100.00,South,175,17.0,26.0,70,-99.99,,,-99.99,,2013-01-09 08:02:00,
2013-01-09 02:12:00,42.0,33.0,-100.00,South,175,14.0,24.0,71,-99.99,,,-99.99,,2013-01-09 08:12:00,
2013-01-09 02:22:00,42.0,33.0,-100.00,South,175,14.0,24.0,71,-99.99,,,-99.99,,2013-01-09 08:22:00,
2013-01-09 02:32:00,43.0,33.0,-100.00,South,185,17.0,25.0,69,-99.99,,,-99.99,,2013-01-09 08:32:00,
2013-01-09 02:42:00,43.0,33.0,-100.00,South,185,17.0,25.0,69,-99.99,,,-99.99,,2013-01-09 08:42:00,
2013-01-09 02:52:00,43.0,34.0,-100.00,South,175,17.0,27.0,69,-99.99,,,-99.99,,2013-01-09 08:52:00,
2013-01-09 03:02:00,43.0,34.0,-100.00,South,175,17.0,27.0,69,-99.99,,,-99.99,,2013-01-09 09:02:00,
2013-01-09 03:12:00,43.0,34.0,-100.00,South,175,17.0,26.0,70,-99.99,,,-99.99,,2013-01-09 09:12:00,
2013-01-09 03:22:00,43.0,34.0,-100.00,South,175,17.0,26.0,70,-99.99,,,-99.99,,2013-01-09 09:22:00,
2013-01-09 03:32:00,42.0,33.0,-100.00,South,185,18.0,29.0,71,-99.99,,,-99.99,,2013-01-09 09:32:00,
2013-01-09 03:42:00,42.0,33.0,-100.00,South,185,18.0,29.0,71,-99.99,,,-99.99,,2013-01-09 09:42:00,
2013-01-09 03:53:00,42.0,33.0,-100.00,South,180,16.0,23.0,72,-99.99,,,-99.99,,2013-01-09 09:53:00,
2013-01-09 04:02:00,42.0,33.0,-100.00,South,180,16.0,23.0,72,-99.99,,,-99.99,,2013-01-09 10:02:00,
2013-01-09 04:12:00,41.0,33.0,-100.00,South,185,14.0,21.0,72,-99.99,,,-99.99,,2013-01-09 10:12:00,
2013-01-09 04:22:00,41.0,33.0,-100.00,South,185,14.0,21.0,72,-99.99,,,-99.99,,2013-01-09 10:22:00,
2013-01-09 04:32:00,41.0,33.0,-100.00,SSW,205,13.0,25.0,72,-99.99,,,-99.99,,2013-01-09 10:32:00,
2013-01-09 04:42:00,41.0,33.0,-100.00,SSW,205,13.0,25.0,72,-99.99,,,-99.99,,2013-01-09 10:42:00,
2013-01-09 04:52:00,40.0,32.0,-100.00,SSW,200,11.0,21.0,73,-99.99,,,-99.99,,2013-01-09 10:52:00,
2013-01-09 05:02:00,40.0,32.0,-100.00,SSW,200,11.0,21.0,73,-99.99,,,-99.99,,2013-01-09 11:02:00,
2013-01-09 05:12:00,39.0,32.0,-100.00,South,190,12.0,22.0,74,-99.99,,,-99.99,,2013-01-09 11:12:00,
2013-01-09 05:22:00,39.0,32.0,-100.00,South,190,12.0,22.0,74,-99.99,,,-99.99,,2013-01-09 11:22:00,
2013-01-09 05:32:00,39.0,32.0,-100.00,South,190,12.0,19.0,75,-99.99,,,-99.99,,2013-01-09 11:32:00,
2013-01-09 05:42:00,39.0,32.0,-100.00,South,190,12.0,19.0,75,-99.99,,,-99.99,,2013-01-09 11:42:00,
2013-01-09 05:52:00,38.0,31.0,-100.00,SSW,200,9.0,18.0,76,-99.99,,,-99.99,,2013-01-09 11:52:00,
2013-01-09 06:03:00,38.0,31.0,-100.00,SSW,200,9.0,18.0,76,-99.99,,,-99.99,,2013-01-09 12:03:00,
2013-01-09 06:12:00,38.0,31.0,-100.00,SSW,210,11.0,19.0,76,-99.99,,,-99.99,,2013-01-09 12:12:00,
2013-01-09 06:23:00,38.0,31.0,-100.00,SSW,210,11.0,19.0,76,-99.99,,,-99.99,,2013-01-09 12:23:00,
2013-01-09 06:33:00,37.0,31.0,-100.00,SSW,200,7.0,16.0,77,-99.99,,,-99.99,,2013-01-09 12:33:00,
2013-01-09 06:43:00,37.0,31.0,-100.00,SSW,200,7.0,16.0,77,-99.99,,,-99.99,,2013-01-09 12:43:00,
2013-01-09 06:52:00,37.0,31.0,-100.00,SW,215,12.0,16.0,78,-99.99,,,-99.99,,2013-01-09 12:52:00,
2013-01-09 07:03:00,37.0,31.0,-100.00,SW,215,12.0,16.0,78,-99.99,,,-99.99,,2013-01-09 13:03:00,
2013-01-09 07:12:00,36.0,31.0,-100.00,SW,215,9.0,17.0,79,-99.99,,,-99.99,,2013-01-09 13:12:00,
2013-01-09 07:23:00,36.0,31.0,-100.00,SW,215,9.0,17.0,79,-99.99,,,-99.99,,2013-01-09 13:23:00,
2013-01-09 07:33:00,36.0,31.0,-100.00,SW,225,11.0,16.0,79,-99.99,,,-99.99,,2013-01-09 13:33:00,
2013-01-09 07:43:00,36.0,31.0,-100.00,SW,225,11.0,16.0,79,-99.99,,,-99.99,,2013-01-09 13:43:00,
2013-01-09 07:52:00,36.0,31.0,-100.00,SW,220,12.0,16.0,79,-99.99,,,-99.99,,2013-01-09 13:52:00,
2013-01-09 08:03:00,36.0,31.0,-100.00,SW,220,12.0,16.0,79,-99.99,,,-99.99,,2013-01-09 14:03:00,
2013-01-09 08:12:00,36.0,31.0,-100.00,SSW,210,9.0,14.0,79,-99.99,,,-99.99,,2013-01-09 14:12:00,
2013-01-09 08:22:00,36.0,31.0,-100.00,SSW,210,9.0,14.0,79,-99.99,,,-99.99,,2013-01-09 14:22:00,
2013-01-09 08:33:00,37.0,31.0,-100.00,SSW,210,8.0,14.0,77,-99.99,,,-99.99,,2013-01-09 14:33:00,
2013-01-09 08:43:00,37.0,31.0,-100.00,South,190,7.0,12.0,77,-99.99,,,-99.99,,2013-01-09 14:43:00,
2013-01-09 08:53:00,37.0,31.0,-100.00,South,190,8.0,13.0,75,-99.99,,,-99.99,,2013-01-09 14:53:00,
2013-01-09 09:03:00,37.0,31.0,-100.00,South,190,8.0,13.0,75,-99.99,,,-99.99,,2013-01-09 15:03:00,
2013-01-09 09:12:00,38.0,31.0,-100.00,South,185,10.0,13.0,73,-99.99,,,-99.99,,2013-01-09 15:12:00,
2013-01-09 09:22:00,39.0,31.0,-100.00,SSW,205,9.0,14.0,72,-99.99,,,-99.99,,2013-01-09 15:22:00,
2013-01-09 09:33:00,39.0,31.0,-100.00,SSW,205,9.0,14.0,72,-99.99,,,-99.99,,2013-01-09 15:33:00,
2013-01-09 09:42:00,39.0,31.0,-100.00,SSW,205,9.0,14.0,71,-99.99,,,-99.99,,2013-01-09 15:42:00,
2013-01-09 09:53:00,39.0,31.0,-100.00,SSW,205,9.0,14.0,71,-99.99,,,-99.99,,2013-01-09 15:53:00,
2013-01-09 10:03:00,40.0,31.0,-100.00,SSW,210,8.0,16.0,68,-99.99,,,-99.99,,2013-01-09 16:03:00,
2013-01-09 10:12:00,40.0,31.0,-100.00,SSW,210,8.0,16.0,68,-99.99,,,-99.99,,2013-01-09 16:12:00,
2013-01-09 10:23:00,42.0,30.0,-100.00,South,190,12.0,18.0,63,-99.99,,,-99.99,,2013-01-09 16:23:00,
2013-01-09 10:33:00,42.0,30.0,-100.00,South,190,12.0,18.0,63,-99.99,,,-99.99,,2013-01-09 16:33:00,
2013-01-09 10:43:00,42.0,30.0,-100.00,South,190,12.0,18.0,63,-99.99,,,-99.99,,2013-01-09 16:43:00,
2013-01-09 10:53:00,42.0,30.0,-100.00,South,190,12.0,18.0,63,-99.99,,,-99.99,,2013-01-09 16:53:00,
2013-01-09 11:02:00,43.0,31.0,-100.00,SW,220,12.0,17.0,61,-99.99,,,-99.99,,2013-01-09 17:02:00,
2013-01-09 11:12:00,44.0,31.0,-100.00,SW,230,11.0,19.0,59,-99.99,,,-99.99,,2013-01-09 17:12:00,
2013-01-09 11:23:00,44.0,31.0,-100.00,SW,220,11.0,21.0,57,-99.99,,,-99.99,,2013-01-09 17:23:00,
2013-01-09 11:33:00,44.0,31.0,-100.00,SW,220,11.0,21.0,57,-99.99,,,-99.99,,2013-01-09 17:33:00,
2013-01-09 11:43:00,45.0,30.0,-100.00,SSW,200,11.0,20.0,55,-99.99,,,-99.99,,2013-01-09 17:43:00,
2013-01-09 11:53:00,45.0,30.0,-100.00,SSW,200,11.0,20.0,55,-99.99,,,-99.99,,2013-01-09 17:53:00,
2013-01-09 12:03:00,47.0,30.0,-100.00,SSW,210,9.0,21.0,51,-99.99,,,-99.99,,2013-01-09 18:03:00,
2013-01-09 12:12:00,47.0,30.0,-100.00,SSW,210,9.0,21.0,51,-99.99,,,-99.99,,2013-01-09 18:12:00,
2013-01-09 12:23:00,47.0,29.0,-100.00,SW,215,12.0,18.0,49,-99.99,,,-99.99,,2013-01-09 18:23:00,
2013-01-09 12:33:00,47.0,29.0,-100.00,SW,215,12.0,18.0,49,-99.99,,,-99.99,,2013-01-09 18:33:00,
2013-01-09 12:43:00,48.0,29.0,-100.00,SW,225,11.0,23.0,46,-99.99,,,-99.99,,2013-01-09 18:43:00,
2013-01-09 12:53:00,48.0,29.0,-100.00,SW,225,11.0,23.0,46,-99.99,,,-99.99,,2013-01-09 18:53:00,
2013-01-09 13:03:00,49.0,28.0,-100.00,SSW,210,14.0,20.0,44,-99.99,,,-99.99,,2013-01-09 19:03:00,
2013-01-09 13:12:00,49.0,28.0,-100.00,SSW,210,14.0,20.0,44,-99.99,,,-99.99,,2013-01-09 19:12:00,
2013-01-09 13:22:00,50.0,26.0,-100.00,SW,230,16.0,24.0,38,-99.99,,,-99.99,,2013-01-09 19:22:00,
2013-01-09 13:33:00,50.0,26.0,-100.00,SW,230,16.0,24.0,38,-99.99,,,-99.99,,2013-01-09 19:33:00,
2013-01-09 13:43:00,51.0,22.0,-100.00,WSW,240,15.0,27.0,32,-99.99,,,-99.99,,2013-01-09 19:43:00,
2013-01-09 13:53:00,51.0,22.0,-100.00,WSW,240,15.0,27.0,32,-99.99,,,-99.99,,2013-01-09 19:53:00,
2013-01-09 14:02:00,51.0,19.0,-100.00,WSW,240,17.0,29.0,28,-99.99,,,-99.99,,2013-01-09 20:02:00,
2013-01-09 14:12:00,51.0,19.0,-100.00,WSW,240,17.0,29.0,28,-99.99,,,-99.99,,2013-01-09 20:12:00,
2013-01-09 14:22:00,50.0,17.0,-100.00,WSW,250,20.0,34.0,26,-99.99,,,-99.99,,2013-01-09 20:22:00,
2013-01-09 14:33:00,50.0,17.0,-100.00,WSW,250,20.0,34.0,26,-99.99,,,-99.99,,2013-01-09 20:33:00,
2013-01-09 14:42:00,50.0,17.0,-100.00,SW,230,27.0,35.0,26,-99.99,,,-99.99,,2013-01-09 20:42:00,
2013-01-09 14:53:00,50.0,17.0,-100.00,SW,230,27.0,35.0,26,-99.99,,,-99.99,,2013-01-09 20:53:00,
2013-01-09 15:03:00,50.0,18.0,-100.00,SW,230,20.0,26.0,28,-99.99,,,-99.99,,2013-01-09 21:03:00,
2013-01-09 15:13:00,50.0,18.0,-100.00,SW,230,20.0,26.0,28,-99.99,,,-99.99,,2013-01-09 21:13:00,
2013-01-09 15:22:00,49.0,17.0,-100.00,WSW,240,22.0,32.0,27,-99.99,,,-99.99,,2013-01-09 21:22:00,
2013-01-09 15:33:00,49.0,17.0,-100.00,WSW,240,22.0,32.0,27,-99.99,,,-99.99,,2013-01-09 21:33:00,
2013-01-09 15:43:00,49.0,18.0,-100.00,SW,235,16.0,21.0,28,-99.99,,,-99.99,,2013-01-09 21:43:00,
2013-01-09 15:53:00,49.0,18.0,-100.00,SW,235,11.0,19.0,28,-99.99,,,-99.99,,2013-01-09 21:53:00,
2013-01-09 16:03:00,49.0,18.0,-100.00,SW,235,11.0,19.0,28,-99.99,,,-99.99,,2013-01-09 22:03:00,
2013-01-09 16:12:00,49.0,17.0,-100.00,WSW,240,10.0,17.0,27,-99.99,,,-99.99,,2013-01-09 22:12:00,
2013-01-09 16:22:00,48.0,16.0,-100.00,WSW,240,11.0,23.0,26,-99.99,,,-99.99,,2013-01-09 22:22:00,
2013-01-09 16:33:00,48.0,16.0,-100.00,WSW,250,10.0,19.0,27,-99.99,,,-99.99,,2013-01-09 22:33:00,
2013-01-09 16:43:00,47.0,15.0,-100.00,WSW,255,11.0,19.0,26,-99.99,,,-99.99,,2013-01-09 22:43:00,
2013-01-09 16:52:00,47.0,15.0,-100.00,WSW,240,11.0,17.0,27,-99.99,,,-99.99,,2013-01-09 22:52:00,
2013-01-09 17:02:00,46.0,14.0,-100.00,WSW,240,10.0,16.0,27,-99.99,,,-99.99,,2013-01-09 23:02:00,
2013-01-09 17:12:00,46.0,14.0,-100.00,WSW,240,10.0,16.0,27,-99.99,,,-99.99,,2013-01-09 23:12:00,
2013-01-09 17:22:00,45.0,14.0,-100.00,WSW,250,8.0,16.0,27,-99.99,,,-99.99,,2013-01-09 23:22:00,
2013-01-09 17:33:00,45.0,14.0,-100.00,WSW,250,8.0,16.0,27,-99.99,,,-99.99,,2013-01-09 23:33:00,
2013-01-09 17:43:00,45.0,14.0,-100.00,WSW,255,9.0,16.0,28,-99.99,,,-99.99,,2013-01-09 23:43:00,
2013-01-09 17:53:00,45.0,14.0,-100.00,WSW,255,9.0,16.0,28,-99.99,,,-99.99,,2013-01-09 23:53:00,
2013-01-09 18:03:00,44.0,15.0,-100.00,WSW,255,9.0,15.0,30,-99.99,,,-99.99,,2013-01-10 00:03:00,
2013-01-09 18:12:00,44.0,15.0,-100.00,WSW,255,9.0,15.0,30,-99.99,,,-99.99,,2013-01-10 00:12:00,
2013-01-09 18:22:00,43.0,15.0,-100.00,West,260,9.0,14.0,32,-99.99,,,-99.99,,2013-01-10 00:22:00,
2013-01-09 18:32:00,43.0,15.0,-100.00,West,260,9.0,14.0,32,-99.99,,,-99.99,,2013-01-10 00:32:00,
2013-01-09 18:42:00,42.0,16.0,-100.00,WNW,285,12.0,17.0,33,-99.99,,,-99.99,,2013-01-10 00:42:00,
2013-01-09 18:53:00,42.0,16.0,-100.00,WNW,285,12.0,17.0,33,-99.99,,,-99.99,,2013-01-10 00:53:00,
2013-01-09 19:02:00,42.0,17.0,-100.00,WNW,300,8.0,16.0,35,-99.99,,,-99.99,,2013-01-10 01:02:00,
2013-01-09 19:12:00,42.0,17.0,-100.00,WNW,300,8.0,16.0,35,-99.99,,,-99.99,,2013-01-10 01:12:00,
2013-01-09 19:22:00,41.0,18.0,-100.00,WNW,285,8.0,15.0,39,-99.99,,,-99.99,,2013-01-10 01:22:00,
2013-01-09 19:33:00,41.0,18.0,-100.00,WNW,285,8.0,15.0,39,-99.99,,,-99.99,,2013-01-10 01:33:00,
2013-01-09 19:43:00,40.0,19.0,-100.00,WNW,285,8.0,14.0,41,-99.99,,,-99.99,,2013-01-10 01:43:00,
2013-01-09 19:53:00,40.0,19.0,-100.00,WNW,285,8.0,14.0,41,-99.99,,,-99.99,,2013-01-10 01:53:00,
2013-01-09 20:03:00,40.0,20.0,-100.00,WNW,285,5.0,12.0,45,-99.99,,,-99.99,,2013-01-10 02:03:00,
2013-01-09 20:12:00,40.0,20.0,-100.00,WNW,285,5.0,12.0,45,-99.99,,,-99.99,,2013-01-10 02:12:00,
2013-01-09 20:22:00,39.0,20.0,-100.00,West,275,6.0,9.0,45,-99.99,,,-99.99,,2013-01-10 02:22:00,
2013-01-09 20:32:00,39.0,20.0,-100.00,West,275,6.0,9.0,45,-99.99,,,-99.99,,2013-01-10 02:32:00,
2013-01-09 20:42:00,39.0,20.0,-100.00,West,275,6.0,9.0,45,-99.99,,,-99.99,,2013-01-10 02:42:00,
2013-01-09 20:52:00,39.0,20.0,-100.00,West,275,6.0,9.0,45,-99.99,,,-99.99,,2013-01-10 02:52:00,
2013-01-09 21:02:00,39.0,20.0,-100.00,WSW,255,4.0,6.0,47,-99.99,,,-99.99,,2013-01-10 03:02:00,
2013-01-09 21:12:00,39.0,20.0,-100.00,WSW,255,4.0,6.0,47,-99.99,,,-99.99,,2013-01-10 03:12:00,
2013-01-09 21:22:00,37.0,20.0,-100.00,SW,235,4.0,6.0,49,-99.99,,,-99.99,,2013-01-10 03:22:00,
2013-01-09 21:33:00,37.0,20.0,-100.00,SW,235,4.0,6.0,49,-99.99,,,-99.99,,2013-01-10 03:33:00,
2013-01-09 21:42:00,33.0,20.0,-100.00,SE,125,1.0,4.0,59,-99.99,,,-99.99,,2013-01-10 03:42:00,
2013-01-09 21:53:00,33.0,20.0,-100.00,SE,125,1.0,4.0,59,-99.99,,,-99.99,,2013-01-10 03:53:00,
2013-01-09 22:02:00,31.0,20.0,-100.00,ESE,110,2.0,3.0,63,-99.99,,,-99.99,,2013-01-10 04:02:00,
2013-01-09 22:12:00,31.0,20.0,-100.00,ESE,110,2.0,3.0,63,-99.99,,,-99.99,,2013-01-10 04:12:00,
2013-01-09 22:22:00,30.0,20.0,-100.00,East,100,1.0,2.0,64,-99.99,,,-99.99,,2013-01-10 04:22:00,
2013-01-09 22:32:00,30.0,20.0,-100.00,East,100,1.0,2.0,64,-99.99,,,-99.99,,2013-01-10 04:32:00,
2013-01-09 22:42:00,30.0,20.0,-100.00,SE,130,2.0,3.0,66,-99.99,,,-99.99,,2013-01-10 04:42:00,
2013-01-09 22:52:00,30.0,20.0,-100.00,SE,130,2.0,3.0,66,-99.99,,,-99.99,,2013-01-10 04:52:00,
2013-01-09 23:03:00,29.0,21.0,-100.00,SSE,150,1.0,4.0,70,-99.99,,,-99.99,,2013-01-10 05:03:00,
2013-01-09 23:12:00,29.0,21.0,-100.00,SSE,150,1.0,4.0,70,-99.99,,,-99.99,,2013-01-10 05:12:00,
2013-01-09 23:22:00,30.0,21.0,-100.00,SSE,150,1.0,2.0,68,-99.99,,,-99.99,,2013-01-10 05:22:00,
2013-01-09 23:33:00,30.0,21.0,-100.00,SSE,150,1.0,2.0,68,-99.99,,,-99.99,,2013-01-10 05:33:00,
2013-01-09 23:42:00,29.0,20.0,-100.00,South,170,2.0,2.0,69,-99.99,,,-99.99,,2013-01-10 05:42:00,
2013-01-09 23:53:00,29.0,20.0,-100.00,South,170,2.0,2.0,69,-99.99,,,-99.99,,2013-01-10 05:53:00,